Wind_Speed
15 13 13 14 13 14 15 13 11 10 9 12 13 16 17 18 20 21 20 19 18 19 17 15 14 13 12 10 9 7 9 8 9 11 12 15 17 18 18 17 17 15 15 14
15 14 15 15 14 15 15 13 11 12 12 14 16 18 18 19 20 20 18 17 16 16 15 15 14 13 12 11 10 7 6 8 9 12 12 14 15 17 17 18 18 17 15 14
16 16 17 16 16 17 14 12 12 13 14 16 19 20 19 18 19 18 15 14 14 14 13 14 14 13 11 10 8 7 5 6 9 12 13 13 14 15 16 17 18 17 16 15
17 17 18 17 17 16 14 12 15 16 17 18 20 21 19 19 17 16 14 12 12 12 12 12 13 13 11 9 7 6 5 6 9 11 13 14 14 15 17 17 18 17 17 17
16 18 19 18 16 15 13 14 16 18 19 19 19 20 19 18 17 15 14 10 11 11 11 12 12 12 10 8 5 5 6 7 8 11 12 14 15 16 17 18 18 18 17 17
17 18 19 18 17 15 14 15 17 19 19 19 17 18 17 17 16 16 13 11 10 10 11 11 12 12 10 7 5 4 5 7 8 10 12 13 15 16 18 18 19 19 18 18
18 17 17 16 15 13 14 16 17 17 17 15 16 18 17 17 18 17 13 9 7 9 11 10 11 11 9 7 5 4 4 6 7 10 12 13 14 16 18 19 19 20 20 20
17 15 15 14 12 11 11 14 16 17 15 14 16 17 16 17 17 15 12 7 5 7 9 10 10 10 9 8 6 5 5 6 8 9 11 12 13 16 17 18 19 19 21 21
17 16 16 15 13 12 12 14 15 17 17 17 17 16 14 14 13 11 9 7 5 6 7 9 9 10 9 7 6 5 4 4 6 8 11 13 13 15 16 17 18 19 21 21
17 17 18 17 15 13 12 12 15 17 18 19 18 17 16 14 12 10 9 7 6 5 5 6 8 9 9 8 7 6 4 4 5 7 9 11 13 14 16 18 18 19 21 21
17 18 19 19 17 14 13 13 15 17 18 20 20 19 17 17 14 14 11 8 7 6 6 7 7 8 9 8 7 6 4 4 5 6 8 9 11 12 15 17 18 18 19 20
20 20 21 21 19 18 17 16 17 18 19 20 21 20 20 19 17 15 12 9 7 7 7 7 7 7 7 8 7 6 4 4 5 6 7 9 11 12 13 15 17 17 17 18
24 25 25 25 24 23 21 21 22 22 22 22 22 22 22 20 18 16 13 10 8 8 7 8 7 6 7 6 7 6 5 5 5 5 5 8 9 11 11 13 15 16 16 17
29 29 29 28 28 27 27 26 26 26 26 25 25 23 23 23 20 18 15 12 10 9 9 9 8 7 7 7 7 7 6 5 4 4 5 6 8 9 11 11 13 15 16 17
36 34 32 31 31 31 31 30 30 29 29 28 27 25 25 25 23 22 18 15 13 12 11 11 11 10 9 8 8 7 6 5 4 5 6 7 8 9 11 11 12 13 14 15
40 39 36 35 33 33 33 33 33 33 32 32 30 30 28 27 26 24 21 19 18 16 14 15 15 13 11 10 9 9 8 8 7 7 7 8 8 9 10 12 13 14 14 15
42 40 38 36 34 34 35 35 37 37 35 33 33 32 31 30 28 26 23 21 19 19 19 19 16 14 13 12 12 12 11 10 9 9 9 8 8 9 10 11 12 14 15 14
44 42 39 37 34 34 32 35 37 39 38 34 33 32 32 30 29 28 25 23 22 22 23 21 19 17 16 15 15 14 13 12 12 11 11 11 11 11 12 12 13 13 14 16
43 42 40 38 35 33 32 33 35 37 37 35 32 30 30 30 29 28 27 26 26 25 24 25 24 21 20 19 18 17 16 15 15 14 14 13 13 14 14 15 15 15 16 17
40 40 39 37 35 33 31 33 35 36 38 36 34 32 31 31 31 30 29 28 28 28 28 27 26 24 23 21 20 19 19 18 18 17 17 17 17 17 16 17 18 18 18 20
38 39 38 36 34 33 30 30 32 35 36 35 35 34 34 33 31 31 31 30 29 29 29 28 27 26 24 23 23 22 22 21 20 20 20 20 20 19 18 19 19 21 21 22
36 36 35 34 34 33 30 29 31 33 33 34 34 34 34 34 33 33 31 31 31 31 30 30 29 27 25 25 25 24 24 23 22 22 22 23 23 22 22 22 23 24 25 25
35 35 33 33 33 31 30 29 29 30 30 31 31 32 32 33 34 33 33 33 32 31 31 31 30 29 27 26 26 25 25 25 24 24 24 25 24 24 24 25 25 25 26 27
33 33 32 31 31 30 29 28 28 29 29 30 31 31 31 31 31 31 31 31 31 31 31 31 30 28 27 26 26 26 26 26 26 25 25 25 25 25 26 26 25 26 27 29
31 31 31 30 30 30 29 29 29 30 29 28 29 29 29 29 29 29 29 29 28 28 28 28 28 27 26 25 24 25 26 26 27 26 27 26 26 27 27 27 28 29 29 29
29 29 30 31 30 29 28 27 28 28 28 27 27 27 27 27 27 26 26 25 25 26 25 25 25 24 23 23 23 23 24 25 26 26 26 26 27 27 27 28 29 29 29 29
Wind_Direction
270 273 270 264 260 257 255 259 269 285 289 287 289 290 293 298 306 315 324 326 331 334 335 337 335 329 324 319 313 306 266 240 227 226 222 219 217 214 209 210 214 216 216 216
265 266 262 262 259 255 256 266 276 274 274 274 277 282 287 293 302 310 317 322 327 333 336 338 337 334 329 317 305 299 275 244 229 221 218 213 214 212 210 213 216 217 217 216
260 258 260 260 258 254 254 268 276 271 267 267 271 278 284 290 296 302 311 317 324 333 335 335 339 339 332 324 303 301 280 249 229 220 219 216 216 216 216 214 214 215 214 215
257 257 259 259 260 260 259 266 269 268 264 264 267 276 281 286 287 292 303 315 324 332 335 336 338 340 335 326 307 295 268 248 230 224 221 219 216 214 211 211 213 214 215 215
255 253 255 256 257 256 260 265 266 266 265 266 268 274 279 282 285 289 297 309 322 330 336 340 341 341 337 327 306 287 267 247 232 225 220 216 214 212 212 213 214 215 217 218
252 253 256 259 255 254 256 264 267 266 267 266 267 273 280 278 281 285 290 301 317 330 335 341 344 341 337 330 317 297 271 249 232 221 218 217 213 212 212 214 216 216 217 219
248 249 253 255 256 253 254 261 267 267 266 265 269 273 285 283 283 285 283 289 314 327 332 341 347 345 344 340 324 301 275 251 233 221 220 219 215 213 214 217 220 219 219 220
246 243 241 243 248 254 256 262 267 270 269 263 268 279 293 290 293 290 280 280 309 324 337 343 346 346 344 341 328 304 289 261 238 226 221 220 217 215 217 220 221 219 220 223
245 236 230 230 230 242 253 263 269 269 270 267 271 281 295 297 297 289 272 263 286 316 330 336 342 345 341 335 330 316 302 278 239 228 224 222 221 219 220 218 217 217 219 221
243 233 227 227 228 236 247 256 263 265 267 268 271 277 290 299 304 296 281 278 292 298 306 324 337 341 343 339 332 321 299 267 238 228 224 221 223 221 219 217 217 218 219 222
245 235 221 223 225 231 242 251 258 265 266 269 273 275 280 287 298 301 290 281 284 280 301 314 330 335 340 341 334 322 305 268 247 236 224 220 219 220 220 217 215 216 220 224
239 239 228 224 226 231 238 247 256 262 265 265 269 273 275 282 291 297 302 304 287 286 295 300 312 326 336 342 341 334 306 276 251 233 221 218 220 219 219 218 219 223 224 228
234 236 234 230 228 230 236 244 252 258 260 261 264 268 271 276 284 293 297 294 288 288 295 296 301 315 328 337 342 341 329 293 262 236 223 218 219 221 223 224 226 227 227 231
230 234 236 236 235 234 237 242 247 254 257 260 264 266 267 269 275 285 291 289 286 290 296 296 303 309 315 325 335 337 337 319 286 263 235 227 231 232 231 232 231 228 233 236
231 234 237 239 239 240 242 243 247 251 257 260 262 264 266 267 271 277 283 284 292 293 291 291 296 297 302 308 317 322 314 308 289 272 263 259 252 245 238 240 239 238 237 239
233 235 238 240 241 243 246 248 250 253 257 258 261 262 264 266 268 274 279 283 288 287 287 284 287 286 287 292 301 305 300 292 287 271 268 268 261 254 250 246 248 247 245 244
237 239 241 243 245 246 246 249 250 253 256 258 258 260 263 264 266 269 275 282 282 281 286 284 283 277 276 281 288 291 291 287 278 272 267 267 266 263 261 257 254 253 252 251
239 243 245 246 246 246 247 248 249 251 254 257 259 261 263 262 265 267 270 277 280 279 280 278 277 278 274 273 276 280 281 282 278 274 268 268 270 267 264 262 261 259 260 260
239 242 246 248 248 248 247 246 246 249 253 256 259 262 264 264 265 266 269 273 276 275 276 276 274 273 272 270 270 274 275 276 275 275 275 272 272 272 269 266 265 270 273 272
237 241 245 248 249 251 248 246 248 250 253 255 259 262 265 265 266 268 269 273 274 273 276 273 271 272 269 269 268 267 270 272 272 271 273 273 272 277 274 269 270 275 279 279
235 239 243 247 250 251 249 247 248 251 255 257 259 262 265 266 268 271 273 274 273 275 275 273 272 273 269 267 266 267 269 268 268 269 270 272 272 275 275 276 279 280 280 282
234 238 242 246 248 249 250 251 251 254 256 257 258 261 263 266 268 270 272 273 274 273 272 272 271 270 268 265 264 266 267 266 266 267 268 271 274 275 277 278 281 282 282 283
236 237 240 244 246 250 252 252 251 252 256 258 259 260 262 264 267 269 271 273 273 272 273 273 272 269 266 265 264 264 267 269 267 268 270 271 275 276 280 281 281 282 283 283
236 237 239 243 247 250 250 251 252 253 256 259 260 262 265 266 266 267 270 272 272 271 272 273 272 269 267 266 264 264 265 267 268 271 273 273 275 278 282 283 281 285 285 284
236 236 238 241 245 250 252 253 255 258 260 262 263 263 264 265 266 269 270 271 271 270 270 269 268 267 265 265 263 261 262 264 265 268 270 274 276 279 280 280 281 283 283 283
232 236 238 241 245 249 252 256 259 262 263 263 264 264 264 265 267 269 270 270 268 268 267 266 265 263 261 261 261 261 261 263 265 267 270 274 277 278 279 280 281 282 282 281
Height
5882 5884 5883 5882 5881 5881 5880 5880 5879 5878 5878 5878 5877 5876 5875 5874 5873 5871 5869 5867 5863 5861 5857 5855 5852 5849 5846 5844 5842 5842 5842 5842 5845 5847 5850 5853 5855 5858 5861 5864 5866 5869 5871 5874
5879 5879 5878 5877 5877 5877 5877 5876 5876 5876 5876 5875 5874 5873 5873 5872 5871 5869 5867 5864 5862 5859 5856 5853 5850 5847 5844 5842 5840 5840 5840 5841 5843 5846 5848 5850 5852 5854 5857 5860 5864 5866 5869 5871
5873 5875 5873 5873 5873 5873 5873 5873 5873 5874 5873 5872 5871 5870 5870 5870 5868 5867 5865 5863 5860 5857 5854 5851 5849 5846 5843 5841 5840 5839 5840 5840 5842 5843 5845 5847 5849 5852 5855 5858 5861 5863 5866 5868
5868 5869 5868 5869 5869 5869 5868 5869 5870 5869 5869 5869 5869 5867 5867 5866 5865 5864 5863 5861 5858 5855 5853 5850 5847 5844 5842 5840 5839 5839 5839 5839 5840 5841 5843 5845 5847 5849 5852 5855 5858 5860 5862 5865
5863 5863 5863 5864 5865 5864 5864 5865 5865 5865 5865 5865 5865 5865 5865 5863 5862 5862 5860 5859 5856 5853 5851 5848 5846 5843 5841 5839 5838 5838 5837 5838 5838 5839 5841 5843 5845 5847 5849 5852 5854 5857 5860 5862
5858 5858 5858 5859 5859 5859 5860 5861 5861 5861 5861 5862 5862 5861 5861 5860 5859 5859 5857 5856 5853 5851 5848 5846 5844 5841 5839 5838 5836 5836 5836 5836 5836 5837 5839 5840 5842 5844 5846 5849 5851 5854 5857 5859
5852 5853 5854 5854 5855 5856 5856 5857 5858 5857 5858 5858 5858 5857 5858 5856 5856 5854 5854 5853 5850 5848 5845 5843 5842 5840 5838 5836 5835 5834 5834 5834 5834 5835 5836 5838 5839 5841 5843 5846 5848 5851 5853 5856
5846 5848 5849 5849 5851 5852 5853 5854 5854 5854 5854 5854 5854 5854 5855 5853 5852 5850 5850 5849 5847 5845 5843 5842 5841 5839 5836 5835 5833 5832 5832 5831 5831 5832 5834 5835 5837 5839 5841 5843 5845 5847 5850 5853
5840 5844 5844 5845 5846 5848 5849 5849 5850 5850 5850 5850 5850 5851 5851 5850 5849 5847 5847 5846 5844 5843 5842 5841 5839 5838 5836 5834 5832 5830 5829 5829 5829 5829 5831 5832 5834 5836 5837 5839 5841 5844 5847 5849
5835 5838 5840 5841 5842 5843 5845 5846 5846 5846 5846 5845 5846 5846 5847 5846 5846 5844 5843 5843 5842 5841 5840 5839 5837 5836 5834 5833 5831 5829 5828 5827 5827 5827 5828 5830 5831 5833 5834 5836 5838 5840 5843 5846
5830 5833 5836 5837 5839 5839 5841 5842 5842 5842 5842 5842 5842 5844 5844 5843 5843 5842 5841 5840 5839 5838 5838 5837 5836 5835 5833 5831 5829 5827 5826 5826 5826 5826 5827 5828 5829 5830 5831 5833 5835 5837 5839 5842
5824 5827 5830 5833 5835 5835 5836 5837 5837 5838 5838 5838 5838 5841 5838 5839 5838 5838 5838 5837 5836 5836 5835 5835 5834 5833 5832 5830 5828 5826 5825 5825 5825 5825 5825 5826 5827 5828 5829 5831 5833 5834 5836 5838
5818 5821 5824 5827 5831 5831 5831 5831 5832 5833 5833 5833 5834 5836 5834 5834 5834 5834 5835 5835 5834 5834 5834 5834 5833 5831 5830 5829 5827 5826 5824 5824 5824 5823 5824 5824 5825 5826 5827 5828 5829 5831 5833 5834
5812 5814 5818 5821 5823 5825 5826 5826 5827 5828 5828 5828 5829 5830 5829 5829 5830 5831 5832 5832 5832 5832 5832 5832 5831 5830 5829 5828 5826 5825 5824 5823 5823 5823 5823 5824 5824 5824 5825 5826 5827 5828 5829 5830
5805 5808 5811 5814 5816 5818 5820 5821 5822 5822 5822 5823 5823 5823 5824 5825 5826 5827 5828 5828 5828 5829 5829 5829 5829 5828 5827 5826 5825 5824 5823 5822 5822 5822 5822 5822 5822 5822 5823 5824 5824 5825 5826 5827
5798 5801 5804 5807 5810 5812 5814 5815 5816 5817 5816 5816 5816 5818 5818 5819 5821 5822 5823 5824 5824 5824 5824 5825 5825 5825 5825 5824 5823 5822 5821 5821 5821 5820 5820 5820 5820 5820 5820 5821 5821 5822 5822 5823
5791 5794 5798 5801 5803 5805 5807 5809 5809 5809 5809 5810 5810 5812 5812 5814 5815 5816 5817 5818 5819 5819 5820 5821 5821 5821 5821 5821 5820 5819 5819 5819 5818 5818 5818 5818 5818 5818 5818 5818 5818 5818 5819 5819
5784 5787 5790 5793 5797 5797 5802 5801 5800 5800 5801 5803 5804 5805 5806 5808 5809 5810 5811 5813 5813 5813 5815 5815 5816 5816 5816 5816 5816 5815 5815 5815 5815 5815 5815 5814 5815 5815 5815 5815 5814 5814 5815 5815
5776 5779 5782 5785 5787 5790 5793 5792 5793 5793 5794 5796 5797 5799 5800 5801 5802 5803 5804 5806 5806 5807 5807 5808 5809 5810 5810 5810 5810 5810 5810 5811 5811 5811 5811 5811 5811 5811 5811 5810 5810 5810 5811 5811
5767 5771 5774 5776 5779 5781 5785 5785 5785 5787 5787 5789 5791 5792 5793 5794 5795 5796 5797 5798 5799 5799 5800 5800 5801 5802 5802 5802 5803 5804 5804 5805 5805 5806 5806 5806 5806 5806 5806 5806 5806 5805 5805 5805
5760 5763 5765 5768 5770 5772 5776 5777 5779 5780 5781 5783 5784 5785 5786 5787 5788 5788 5789 5791 5792 5792 5792 5793 5793 5794 5794 5795 5796 5797 5797 5798 5799 5799 5800 5800 5800 5800 5800 5800 5800 5799 5799 5798
5752 5755 5758 5761 5763 5766 5768 5771 5772 5772 5773 5774 5775 5777 5779 5780 5780 5781 5781 5781 5782 5783 5784 5785 5786 5786 5787 5788 5789 5790 5790 5791 5792 5792 5792 5793 5793 5793 5793 5793 5793 5792 5792 5791
5745 5748 5751 5754 5757 5758 5760 5762 5763 5764 5765 5766 5767 5769 5770 5772 5772 5773 5773 5773 5774 5774 5775 5776 5777 5777 5778 5779 5781 5782 5783 5783 5783 5784 5785 5786 5786 5786 5786 5786 5785 5785 5784 5783
5738 5740 5744 5746 5748 5750 5752 5754 5755 5756 5757 5759 5760 5761 5762 5763 5764 5764 5765 5765 5765 5766 5766 5767 5767 5768 5770 5772 5774 5775 5776 5777 5777 5778 5779 5779 5780 5779 5779 5779 5778 5777 5776 5775
5731 5734 5736 5739 5742 5743 5745 5746 5747 5749 5750 5751 5752 5753 5754 5755 5755 5756 5757 5757 5757 5758 5758 5758 5759 5760 5762 5764 5765 5767 5768 5770 5770 5771 5771 5772 5772 5772 5771 5771 5770 5769 5768 5766
5724 5727 5730 5732 5735 5737 5738 5739 5740 5742 5742 5743 5744 5745 5746 5747 5747 5748 5748 5749 5749 5750 5751 5750 5752 5753 5754 5756 5758 5760 5761 5762 5763 5763 5764 5764 5764 5764 5764 5763 5761 5760 5759 5757